Starlink 3608

operational
NORAD ID: 51776 Int'l Des: 2022-017 Owner: SPXS Country: US Constellation: starlink
LEOCIRCULAR

Starlink 3608について

説明を読み込み中...

リアルタイム位置

3D地球を読み込み中...

次回通過

高度履歴

Altitude vs Time

uPlot chart will show altitude changes over time

軌道要素

1 51776U 22017J 25351.38748081 .00000244 00000-0 33399-4 0 9994
2 51776 53.2191 348.5899 0001442 82.7302 277.3854 15.08838884210145
Epoch: Dec 17, 2025 • Age: 13 hours

現在のステータス

高度 548.0 km
速度 7.59 km/s
衛星直下点 -26.36°S, 90.2°W
打ち上げ日 Feb 25, 2022
運用期間 3.8 years
タイプ internet

技術仕様

分類 Payload
質量 297.00 kg
乾燥質量 275.00 kg
総質量 297.00 kg
長さ 0.20 m
直径 2.80 m
スパン 9.00 m
形状 Box + pan
製造者 SPXS
バスタイプ Starlink
フェーズステータス In Orbit
所有者/国 SPXS/US

大規模コンステレーション

Loading constellations...